Voltar ao catálogo

STARLINK-32024

AtivoComunicaçõesVLEO
NORAD 60112·PAYLOAD·🇺🇸 United States

Lançado Jun 23, 2024 de Cape Canaveral Space Force Station

Loading…

Próximas Passagens (próximas 24 horas)

TLE

AtualizadoSource: CelesTrak SupGP

Época: Sep 14, 2026, 14:00 UTC

1 60112C 24117X   26257.58381944 -.00023739  00000+0 -70128-3 0  2572
2 60112  53.1565 237.6302 0001145  98.5888   7.8115 15.34407244    14

Acompanhe STARLINK-32024 em tempo real com AllMySat

Download on the App Store